Location: Brachbach
(49.1847°N, 9.7240°E)
Time: 13:29:13
(UTC+00:00)

CZ-2C R/B - Pass Details

Date: 14 August 2024
Orbit: 782 x 869 km, 98.3° (Epoch: 15 September)

Event Time Altitude Azimuth Distance (km) Brightness Sun altitude
Exits shadow 01:14:19 43° 175° (S) 1,175 3.0 -22.2°
Maximum altitude 01:16:13 81° 256° (WSW) 859 2.6 -22.0°
Drops below altitude 10° 01:21:39 10° 344° (NNW) 2,442 5.7 -21.6°
Sets 01:23:59 0° 346° (NNW) 3,366 6.5 -21.4°
